Flag for Tunisia Weather past 2 weeks in Sfax, Tunisia

Now
57 °F

Passing clouds.


Feels Like: 54 °F
Forecast: 46 / 59 °F
Wind: 13 mph from Southwest

Location: Sfax El-Maou

Current Time: Jan 27, 2015 at 6:45:10 PM

Latest Report: Jan 27, 2015 at 6:00 PM


Visibility: N/A

Pressure: 30.07 "Hg

Humidity: 39%

Dew point: 32 °F

Location of SfaxLocation

Historic Weather in Sfax — Graph

°F

Sfax temperature yesterday

Maximum temperature yesterday: 55 °F (at 1:00 PM)
Minimum temperature yesterday: 41 °F (at 4:00 AM)
Average temperature yesterday: 49 °F

Past Weeks' High & Low Weather Summary

 TemperatureHumidityPressure
High73 °F (Jan 14, 2:00 PM)94% (Jan 16, 3:00 AM)30.54 "Hg (Jan 16, 3:00 AM)
Low37 °F (Jan 21, 7:00 AM)22% (Jan 14, 1:00 PM)29.71 "Hg (Jan 22, 2:00 PM)
Average53 °F63%30.03 "Hg
* Reported Jan 12 5:00 PM — Jan 27 5:00 PM, Sfax, Weather by CustomWeather, © 2014

Note: Actual official high and low records may vary slightly from our data, if they occured in-between our weather recording intervals... More about our weather records

Advertising

Sfax weather history for previous 24 hours

 ConditionsComfort  
Time TempWeatherWind HumidityBarometerVisibility
5:00 PM
Jan 27
59 °FScattered clouds.9 mph36%30.04 "HgN/A
4:00 PM59 °FScattered clouds.12 mph39%30.07 "HgN/A
3:00 PM59 °FScattered clouds.14 mph42%30.07 "HgN/A
2:00 PM59 °FScattered clouds.13 mph45%30.09 "HgN/A
1:00 PM57 °FScattered clouds.17 mph44%30.12 "HgN/A
12:00 PM57 °FScattered clouds.21 mph48%30.12 "HgN/A
11:00 AM54 °FScattered clouds.20 mph54%30.12 "HgN/A
10:00 AM54 °FScattered clouds.17 mph58%30.12 "HgN/A
9:00 AM50 °FScattered clouds.17 mph67%30.09 "HgN/A
8:00 AM46 °FPassing clouds.10 mph76%30.09 "HgN/A
7:00 AM45 °FPassing clouds.12 mph76%30.07 "HgN/A
6:00 AM45 °FPassing clouds.10 mph81%30.04 "Hg5 mi
5:00 AM46 °FPassing clouds.13 mph76%30.04 "Hg5 mi
4:00 AM46 °FPassing clouds.13 mph76%30.04 "Hg5 mi
12:00 AM48 °FPassing clouds.13 mph76%30.01 "HgN/A
11:00 PM
Jan 26
48 °FPassing clouds.12 mph76%30.01 "HgN/A
10:00 PM48 °FPassing clouds.13 mph76%30.01 "HgN/A
9:00 PM48 °FPassing clouds.17 mph76%30.01 "HgN/A
8:00 PM48 °FPassing clouds.14 mph87%29.98 "HgN/A
7:00 PM48 °FPassing clouds.7 mph87%29.98 "HgN/A
6:00 PM52 °FPassing clouds.8 mph67%29.95 "HgN/A
Weather by CustomWeather, © 2014

See weather overviewHow to use our weather pages